Location: Arrien
(42.8963°N, 1.0429°E)
Time: 06:42:25
(UTC+00:00)

YAOGAN 1 - Visible Passes

Search period start: 11 March 2026 00:00
Search period end: 21 March 2026 00:00
Orbit: 604 x 607 km, 97.8° (Epoch: 10 March)

Date Brightness Start Highest point End Pass type
(mag) Time Alt. Az. Time Alt. Az. Time Alt. Az.
11 Mar 3.3 18:39:04 10° S 18:43:14 56° W 18:47:26 10° NNW visible
12 Mar 4.0 18:52:03 10° SSW 18:56:02 40° W 19:00:04 10° NNW visible
13 Mar 4.7 19:05:10 10° SSW 19:08:52 29° W 19:12:37 10° NW visible
14 Mar 5.2 19:18:26 10° SW 19:21:42 22° W 19:25:01 10° NW visible
15 Mar 5.6 19:31:57 10° SW 19:34:35 16° W 19:37:13 10° NW visible
16 Mar 5.9 19:46:02 10° WSW 19:47:29 11° W 19:48:55 10° WNW visible
18 Mar 3.0 18:32:30 10° S 18:36:44 66° W 18:40:58 10° NNW visible
19 Mar 3.7 18:45:25 10° S 18:49:30 47° W 18:53:38 10° NNW visible
20 Mar 4.4 18:58:26 10° SSW 19:02:18 34° W 19:06:12 10° NNW visible
